This is the latest recevied weather packets stored in our database for station/object W4JCW. If no packets are shown the sender has not sent any weather packets the latest 10 day(s).
| Time | Temp. | Humidity | Pressure | Rain* | Wind** | Luminosity | Snow |
|---|---|---|---|---|---|---|---|
| 1778026443 | 23.89° C | 51% | 1012.5 hPa | 0 mm | - | 2 W/m² | - |
| 1778026140 | 23.89° C | 50% | 1012.5 hPa | 0 mm | - | 3 W/m² | - |
| 1778025838 | 23.89° C | 49% | 1012.3 hPa | 0 mm | - | 5 W/m² | - |
| 1778025534 | 23.89° C | 48% | 1012.4 hPa | 0 mm | - | 8 W/m² | - |
| 1778025231 | 24.44° C | 47% | 1012.3 hPa | 0 mm | - | 11 W/m² | - |
| 1778024928 | 24.44° C | 46% | 1012.4 hPa | 0 mm | - | 14 W/m² | - |
| 1778024626 | 24.44° C | 46% | 1012.3 hPa | 0 mm | - | 18 W/m² | - |
| 1778024323 | 24.44° C | 45% | 1012.6 hPa | 0 mm | - | 21 W/m² | - |
| 1778024021 | 25° C | 45% | 1012.3 hPa | 0 mm | - | 24 W/m² | - |
| 1778023718 | 25° C | 44% | 1012.4 hPa | 0 mm | - | 27 W/m² | - |
| 1778023416 | 25° C | 44% | 1012.6 hPa | 0 mm | - | 30 W/m² | - |
| 1778023112 | 25° C | 43% | 1012.4 hPa | 0 mm | - | 35 W/m² | - |
| 1778022810 | 25° C | 43% | 1012.4 hPa | 0 mm | - | 39 W/m² | - |
| 1778022508 | 25° C | 43% | 1012.5 hPa | 0 mm | - | 39 W/m² | - |
| 1778022205 | 25.56° C | 43% | 1012.5 hPa | 0 mm | - | 42 W/m² | - |
| 1778021901 | 25.56° C | 42% | 1012.4 hPa | 0 mm | - | 41 W/m² | - |
| 1778021599 | 25.56° C | 43% | 1012.3 hPa | 0 mm | - | 46 W/m² | - |
| 1778021293 | 25.56° C | 43% | 1012.5 hPa | 0 mm | - | 48 W/m² | - |
| 1778020992 | 26.11° C | 42% | 1012.3 hPa | 0 mm | - | 53 W/m² | - |
| 1778020689 | 26.11° C | 42% | 1012.3 hPa | 0 mm | - | 59 W/m² | - |
| 1778020386 | 26.11° C | 42% | 1012.3 hPa | 0 mm | - | 60 W/m² | - |
| 1778020081 | 26.67° C | 41% | 1012.2 hPa | 0 mm | - | 65 W/m² | - |
| 1778019777 | 26.67° C | 41% | 1012.5 hPa | 0 mm | - | 151 W/m² | - |
| 1778019475 | 26.67° C | 41% | 1012.3 hPa | 0 mm | - | 218 W/m² | - |
| 1778019171 | 26.67° C | 41% | 1012.6 hPa | 0 mm | - | 257 W/m² | - |
* Rain latest hour (hover to see other rain measurements)
** Current wind speed in m/s (hover to see current wind gust speed)